GW4693 Weather Reports


time (UTC)temp
C
wind
direction
speed
KPH
gust
KPH
rain 1hr
cm
rain 24hr
cm
rain mn
cm
humidity
%
barometer
mb
20260508075003 11 319 12.9 35.4 0.08 0.56 0.56 95 1005.8
20260508074518 11 350 12.9 35.4 0.08 0.56 0.56 95 1005.9
20260508074007 11 27 22.5 32.2 0.10 0.56 0.56 95 1005.8
20260508073509 11 8 14.5 29.0 0.13 0.56 0.56 94 1005.7
20260508073020 11 329 17.7 30.6 0.15 0.56 0.56 95 1005.9
20260508072508 11 321 16.1 30.6 0.13 0.53 0.53 94 1005.9
20260508072011 11 314 20.9 32.2 0.13 0.53 0.53 94 1006.0
20260508071505 11 317 17.7 38.6 0.10 0.51 0.51 93 1005.3
20260508071003 12 308 24.1 38.6 0.10 0.51 0.51 92 1005.7
20260508070503 13 290 20.9 35.4 0.10 0.51 0.51 90 1005.7
20260508070010 15 252 1.6 27.4 0.13 0.51 0.51 94 1006.0
20260508065502 15 30 12.9 27.4 0.13 0.48 0.48 94 1005.2
20260508065004 16 6 16.1 40.2 0.15 0.46 0.46 94 1005.3
20260508064542 16 318 17.7 40.2 0.18 0.46 0.46 93 1005.4
20260508064004 16 13 22.5 46.7 0.18 0.43 0.43 93 1005.1
20260508063507 16 359 30.6 46.7 0.18 0.41 0.41 92 1004.9
20260508063026 16 9 25.7 56.3 0.23 0.38 0.38 92 1005.1
20260508062511 16 337 29.0 56.3 0.38 0.38 0.38 92 1004.8
20260508062010 16 330 25.7 43.5 0.38 0.38 0.38 93 1004.6
20260508061524 16 323 24.1 46.7 0.38 0.38 0.38 93 1004.8
20260508061011 16 325 27.4 46.7 0.38 0.38 0.38 93 1004.7
20260508060508 15 316 27.4 45.1 0.38 0.38 0.38 93 1004.5
20260508060009 15 23 24.1 45.1 0.36 0.36 0.36 93 1004.6
20260508055502 15 342 27.4 43.5 0.36 0.36 0.36 92 1004.5
20260508055002 15 339 25.7 43.5 0.30 0.30 0.30 92 1004.6
20260508054514 16 357 25.7 43.5 0.28 0.28 0.28 92 1004.4
20260508054004 16 354 27.4 46.7 0.25 0.25 0.25 92 1004.6
20260508053505 16 317 25.7 59.5 0.23 0.23 0.23 91 1005.1
20260508053016 17 333 38.6 59.5 0.15 0.15 0.15 88 1005.7
20260508052504 17 328 25.7 35.4 0.00 0.00 0.00 86 1006.4
20260508052006 17 319 22.5 37.0 0.00 0.00 0.00 87 1005.3
20260508051525 17 333 22.5 37.0 0.00 0.00 0.00 87 1005.0
20260508051006 17 24 20.9 38.6 0.00 0.00 0.00 86 1004.9
20260508050507 17 321 24.1 38.6 0.00 0.00 0.00 86 1004.8
20260508045507 17 343 19.3 30.6 0.00 0.00 0.00 86 1004.7
20260508045007 17 319 17.7 32.2 0.00 0.00 0.00 86 1004.6
20260508044508 17 281 17.7 33.8 0.00 0.00 0.00 85 1004.8
20260508044003 17 16 20.9 33.8 0.00 0.00 0.00 84 1005.1
20260508043502 17 354 20.9 33.8 0.00 0.00 0.00 83 1005.2
20260508043014 17 303 20.9 35.4 0.00 0.00 0.00 83 1005.1
20260508042508 18 302 22.5 38.6 0.00 0.00 0.00 83 1005.1
20260508042005 18 332 22.5 38.6 0.00 0.00 0.00 82 1005.3
20260508041516 18 311 25.7 37.0 0.00 0.00 0.00 81 1005.3
20260508041007 18 318 19.3 32.2 0.00 0.00 0.00 81 1005.4
20260508040506 18 354 19.3 30.6 0.00 0.00 0.00 79 1005.5
20260508040026 19 321 14.5 32.2 0.00 0.00 0.00 76 1005.8
20260508035508 20 303 20.9 32.2 0.00 0.00 0.00 73 1006.1
20260508035007 20 335 11.3 27.4 0.00 0.00 0.00 72 1005.7
20260508034528 20 326 14.5 27.4 0.00 0.00 0.00 72 1005.9
20260508034009 20 321 9.7 20.9 0.00 0.00 0.00 70 1005.8
20260508033507 20 304 11.3 24.1 0.00 0.00 0.00 69 1005.8
20260508033012 21 344 14.5 24.1 0.00 0.00 0.00 67 1005.8
20260508032504 22 307 8.0 14.5 0.00 0.00 0.00 66 1005.9
20260508032005 22 358 4.8 20.9 0.00 0.00 0.00 66 1005.8
20260508031514 22 55 9.7 20.9 0.00 0.00 0.00 66 1006.0
20260508031007 22 333 9.7 40.2 0.00 0.00 0.00 65 1005.8
20260508030513 22 300 16.1 40.2 0.00 0.00 0.00 65 1005.6
20260508030018 22 321 20.9 35.4 0.00 0.00 0.00 65 1005.1
20260508025507 22 338 17.7 43.5 0.00 0.00 0.00 65 1005.0
20260508025006 22 318 19.3 43.5 0.00 0.00 0.00 65 1004.9
20260508024524 22 317 24.1 40.2 0.00 0.00 0.00 64 1004.8
20260508024007 22 325 17.7 45.1 0.00 0.00 0.00 64 1004.7
20260508023508 23 327 27.4 45.1 0.00 0.00 0.00 63 1004.6
20260508023026 23 8 27.4 45.1 0.00 0.00 0.00 63 1003.9
20260508022506 22 2 22.5 53.1 0.00 0.00 0.00 63 1003.6
20260508022012 22 336 30.6 53.1 0.00 0.00 0.00 63 1003.7
20260508021514 22 322 27.4 45.1 0.00 0.00 0.00 63 1004.1
20260508021008 23 349 22.5 46.7 0.00 0.00 0.00 63 1004.0
20260508020503 23 10 19.3 56.3 0.00 0.00 0.00 63 1004.1
20260508020016 23 343 22.5 56.3 0.00 0.00 0.00 63 1004.4
20260508015503 23 335 24.1 45.1 0.00 0.00 0.00 62 1004.5
20260508015010 23 330 22.5 45.1 0.00 0.00 0.00 62 1004.4
20260508014520 23 332 24.1 40.2 0.00 0.00 0.00 62 1004.7
20260508014010 23 302 30.6 48.3 0.00 0.00 0.00 62 1004.7
20260508013507 23 313 22.5 48.3 0.00 0.00 0.00 62 1004.9
20260508013026 23 60 19.3 48.3 0.00 0.00 0.00 62 1004.8
20260508012513 23 344 17.7 46.7 0.00 0.00 0.00 62 1004.8
20260508012012 23 286 24.1 46.7 0.00 0.00 0.00 62 1005.0
20260508011535 23 24 17.7 45.1 0.00 0.00 0.00 62 1005.1
20260508011009 23 316 20.9 45.1 0.00 0.00 0.00 62 1005.0
20260508010508 22 322 12.9 33.8 0.00 0.00 0.00 63 1005.2
20260508010024 22 307 12.9 32.2 0.00 0.00 0.00 63 1005.4
20260508005503 23 345 14.5 53.1 0.00 0.00 0.00 62 1005.4
20260508005004 23 25 12.9 53.1 0.00 0.00 0.00 62 1005.4
20260508004531 22 341 17.7 38.6 0.00 0.00 0.00 62 1005.4
20260508004007 22 325 17.7 33.8 0.00 0.00 0.00 62 1005.4
20260508003507 22 337 17.7 27.4 0.00 0.00 0.00 63 1005.6
20260508003022 22 304 16.1 30.6 0.00 0.00 0.00 63 1005.4
20260508002507 22 356 16.1 30.6 0.00 0.00 0.00 63 1005.4
20260508002006 22 321 14.5 27.4 0.00 0.00 0.00 64 1005.5
20260508001529 22 6 11.3 25.7 0.00 0.00 0.00 64 1005.6
20260508001007 22 20 12.9 35.4 0.00 0.00 0.00 64 1005.5
20260508000511 22 294 16.1 35.4 0.00 0.00 0.00 64 1005.7
20260508000026 22 326 9.7 24.1 0.00 0.00 0.00 65 1005.7
20260507235507 22 336 11.3 24.1 0.00 0.00 0.00 65 1005.7
20260507235010 22 302 11.3 20.9 0.00 0.00 0.00 65 1005.6
20260507234523 22 11 8.0 20.9 0.00 0.00 0.00 65 1005.8
20260507234005 22 1 8.0 20.9 0.00 0.00 0.00 65 1005.9
20260507233507 22 307 9.7 20.9 0.00 0.00 0.00 65 1005.9
20260507233026 22 301 8.0 20.9 0.00 0.00 0.00 65 1006.0
20260507232507 22 321 11.3 22.5 0.00 0.00 0.00 66 1006.0
20260507232007 22 312 8.0 22.5 0.00 0.00 0.00 66 1005.9
20260507231525 22 314 9.7 19.3 0.00 0.00 0.00 65 1005.9
20260507231007 22 319 9.7 19.3 0.00 0.00 0.00 64 1005.9
20260507230507 22 327 8.0 24.1 0.00 0.00 0.00 64 1006.0
20260507230027 22 340 11.3 24.1 0.00 0.00 0.00 63 1006.0
20260507225508 22 315 9.7 19.3 0.00 0.00 0.00 63 1006.0
20260507225008 22 342 9.7 19.3 0.00 0.00 0.00 63 1006.0
20260507224526 23 314 11.3 25.7 0.00 0.00 0.00 62 1006.0
20260507224009 23 359 11.3 25.7 0.00 0.00 0.00 62 1006.0
20260507223509 23 328 11.3 19.3 0.00 0.00 0.00 62 1006.0
20260507223030 23 302 8.0 19.3 0.00 0.00 0.00 62 1006.0
20260507222507 23 328 8.0 19.3 0.00 0.00 0.00 62 1006.0
20260507222007 23 320 9.7 19.3 0.00 0.00 0.00 62 1006.1
20260507221522 23 37 8.0 17.7 0.00 0.00 0.00 61 1006.4
20260507221013 23 14 6.4 17.7 0.00 0.00 0.00 61 1006.6
20260507220517 23 321 6.4 17.7 0.00 0.00 0.00 61 1006.5
20260507220027 23 9 3.2 22.5 0.00 0.00 0.00 60 1006.6
20260507215506 23 23 9.7 22.5 0.00 0.00 0.00 60 1006.6
20260507215007 23 302 11.3 19.3 0.00 0.00 0.00 60 1006.7
20260507214529 23 314 8.0 19.3 0.00 0.00 0.00 60 1006.7
20260507214514 23 319 8.0 19.3 0.00 0.00 0.00 60 1006.7
20260507214003 23 340 11.3 20.9 0.00 0.00 0.00 59 1006.6
20260507213503 23 326 8.0 20.9 0.00 0.00 0.00 59 1006.5
20260507213015 23 4 9.7 25.7 0.00 0.00 0.00 59 1006.5
20260507212502 23 328 9.7 25.7 0.00 0.00 0.00 60 1006.5
20260507212008 23 296 9.7 27.4 0.00 0.00 0.00 60 1006.5
20260507211523 23 304 11.3 27.4 0.00 0.00 0.00 60 1006.5
20260507211006 23 20 12.9 25.7 0.00 0.00 0.00 60 1006.5
20260507210506 23 337 11.3 25.7 0.00 0.00 0.00 60 1006.2
20260507210023 23 356 12.9 25.7 0.00 0.00 0.00 61 1006.1
20260507205502 23 359 8.0 20.9 0.00 0.00 0.00 61 1006.5
20260507205003 23 328 11.3 20.9 0.00 0.00 0.00 61 1006.6
20260507204507 23 317 4.8 19.3 0.00 0.00 0.00 61 1006.7
20260507204007 23 25 4.8 20.9 0.00 0.00 0.00 61 1006.8
20260507203507 24 308 3.2 20.9 0.00 0.00 0.00 60 1006.7
20260507203013 24 4 8.0 17.7 0.00 0.00 0.00 60 1006.7
20260507202502 24 2 8.0 17.7 0.00 0.00 0.00 60 1006.7
20260507202011 24 66 8.0 25.7 0.00 0.00 0.00 60 1006.6
20260507201518 24 13 9.7 25.7 0.00 0.00 0.00 59 1006.7
20260507201007 24 34 8.0 20.9 0.00 0.00 0.00 59 1006.6
20260507200506 24 316 9.7 20.9 0.00 0.00 0.00 59 1006.7
20260507200021 25 348 9.7 19.3 0.00 0.00 0.00 58 1006.6
20260507195506 25 44 8.0 17.7 0.00 0.00 0.00 58 1006.7
20260507195007 25 324 6.4 20.9 0.00 0.00 0.00 57 1006.7
20260507194526 25 24 11.3 20.9 0.00 0.00 0.00 57 1006.8
20260507194003 25 294 6.4 29.0 0.00 0.00 0.00 58 1006.8
20260507193503 24 343 11.3 29.0 0.00 0.00 0.00 58 1006.9
20260507193017 24 313 8.0 19.3 0.00 0.00 0.00 59 1007.0
20260507192505 24 345 12.9 22.5 0.00 0.00 0.00 58 1007.0
20260507192003 24 14 11.3 25.7 0.00 0.00 0.00 58 1006.9
20260507191514 24 327 14.5 25.7 0.00 0.00 0.00 57 1007.0
20260507191002 24 323 8.0 24.1 0.00 0.00 0.00 57 1007.0
20260507190506 24 24 4.8 19.3 0.00 0.00 0.00 58 1007.1
20260507190022 24 326 6.4 17.7 0.00 0.00 0.00 57 1007.0
20260507185507 25 41 8.0 20.9 0.00 0.00 0.00 56 1006.9
20260507185006 25 302 4.8 25.7 0.00 0.00 0.00 56 1006.7
20260507184521 25 41 8.0 32.2 0.00 0.00 0.00 55 1006.7
20260507184007 25 332 16.1 32.2 0.00 0.00 0.00 55 1006.6
20260507183510 25 303 14.5 41.8 0.00 0.00 0.00 55 1006.4
20260507183023 25 312 22.5 41.8 0.00 0.00 0.00 53 1006.3
20260507182503 25 351 19.3 37.0 0.00 0.00 0.00 53 1006.1
20260507182004 25 323 16.1 37.0 0.00 0.00 0.00 54 1005.9
20260507181515 25 317 17.7 33.8 0.00 0.00 0.00 53 1005.9
20260507181004 25 358 16.1 40.2 0.00 0.00 0.00 53 1006.0
20260507180504 25 359 11.3 40.2 0.00 0.00 0.00 54 1006.1
20260507180015 25 326 12.9 35.4 0.00 0.00 0.00 53 1006.2
20260507175508 25 295 12.9 25.7 0.00 0.00 0.00 53 1006.1
20260507175005 25 19 9.7 30.6 0.00 0.00 0.00 53 1006.3
20260507174539 25 336 12.9 30.6 0.00 0.00 0.00 53 1006.3
20260507174011 25 295 11.3 38.6 0.00 0.00 0.00 54 1006.3
20260507173512 25 39 14.5 40.2 0.00 0.00 0.00 53 1006.5
20260507173025 25 306 19.3 40.2 0.00 0.00 0.00 54 1006.5
20260507172506 25 300 11.3 27.4 0.00 0.00 0.00 54 1006.5
20260507172015 25 359 9.7 25.7 0.00 0.00 0.00 54 1006.6
20260507171539 25 142 6.4 27.4 0.00 0.00 0.00 54 1006.5
20260507171003 25 323 16.1 33.8 0.00 0.00 0.00 53 1006.5
20260507170503 25 337 19.3 33.8 0.00 0.00 0.00 53 1006.6
20260507170012 25 333 16.1 33.8 0.00 0.00 0.00 54 1006.6
20260507165508 25 25 14.5 32.2 0.00 0.00 0.00 54 1006.8
20260507165005 25 296 12.9 29.0 0.00 0.00 0.00 55 1006.9
20260507164514 25 343 8.0 32.2 0.00 0.00 0.00 56 1006.9
20260507164005 25 300 17.7 32.2 0.00 0.00 0.00 55 1007.1
20260507163505 25 303 9.7 30.6 0.00 0.00 0.00 55 1007.3
20260507163023 25 317 14.5 30.6 0.00 0.00 0.00 55 1007.4
20260507162506 26 4 16.1 40.2 0.00 0.00 0.00 56 1007.3
20260507162008 26 322 14.5 40.2 0.00 0.00 0.00 56 1007.4
20260507161526 26 38 12.9 40.2 0.00 0.00 0.00 56 1007.2
20260507161010 26 7 16.1 40.2 0.00 0.00 0.00 57 1007.4
20260507160508 26 322 17.7 35.4 0.00 0.00 0.00 57 1007.4
20260507160030 26 311 20.9 37.0 0.00 0.00 0.00 57 1007.4
20260507155504 26 326 14.5 37.0 0.00 0.00 0.00 58 1007.5
20260507155004 26 19 12.9 30.6 0.00 0.00 0.00 57 1007.5
20260507154518 25 316 12.9 41.8 0.00 0.00 0.00 58 1007.9
20260507154009 25 298 14.5 41.8 0.00 0.00 0.00 59 1007.9
20260507153511 25 18 19.3 35.4 0.00 0.00 0.00 60 1007.8
20260507153025 25 293 17.7 45.1 0.00 0.00 0.00 62 1008.0
20260507152503 25 314 19.3 45.1 0.00 0.00 0.00 62 1008.0
20260507152001 25 14 20.9 37.0 0.00 0.00 0.00 62 1007.9
20260507151508 25 345 16.1 38.6 0.00 0.00 0.00 63 1008.1
20260507151003 25 14 14.5 40.2 0.00 0.00 0.00 63 1008.2
20260507150503 25 359 17.7 40.2 0.00 0.00 0.00 64 1008.1
20260507150008 24 316 14.5 33.8 0.00 0.00 0.00 65 1008.3
20260507145507 24 6 12.9 29.0 0.00 0.00 0.00 67 1008.4
20260507145006 24 345 9.7 32.2 0.00 0.00 0.00 66 1008.6
20260507144506 23 300 8.0 32.2 0.00 0.00 0.00 68 1008.9
20260507144006 23 346 19.3 32.2 0.00 0.00 0.00 69 1009.0
20260507143503 23 340 9.7 27.4 0.00 0.00 0.00 71 1009.3
20260507143008 23 325 12.9 27.4 0.00 0.00 0.00 71 1009.5
20260507142506 22 35 14.5 27.4 0.00 0.00 0.00 71 1009.6
20260507142003 22 290 9.7 38.6 0.00 0.00 0.00 71 1009.8
20260507141508 23 297 11.3 38.6 0.00 0.00 0.00 71 1009.9
20260507141003 23 36 9.7 38.6 0.00 0.00 0.00 69 1010.1
20260507140503 23 16 9.7 22.5 0.00 0.00 0.00 71 1010.2
20260507140017 22 27 9.7 25.7 0.00 0.00 0.00 71 1010.3
20260507135504 22 326 8.0 33.8 0.00 0.00 0.00 73 1010.4
20260507135007 22 320 14.5 33.8 0.00 0.00 0.00 72 1010.6
20260507134508 22 19 16.1 32.2 0.00 0.00 0.00 73 1010.4
20260507134004 22 285 11.3 25.7 0.00 0.00 0.00 73 1010.5
20260507133504 22 19 12.9 30.6 0.00 0.00 0.00 74 1010.5
20260507133010 22 313 8.0 30.6 0.00 0.00 0.00 74 1010.8
20260507132504 22 312 14.5 27.4 0.00 0.00 0.00 73 1010.7
20260507132003 22 287 11.3 32.2 0.00 0.00 0.00 74 1010.7
20260507131508 22 307 14.5 32.2 0.00 0.00 0.00 73 1010.9
20260507131007 22 308 12.9 35.4 0.00 0.00 0.00 73 1010.9
20260507130503 22 39 17.7 40.2 0.00 0.00 0.00 73 1010.9
20260507130009 22 320 12.9 40.2 0.00 0.00 0.00 74 1011.0
20260507125506 22 27 19.3 30.6 0.00 0.00 0.00 74 1010.8
20260507125004 22 326 16.1 32.2 0.00 0.00 0.00 74 1010.8
20260507124511 22 303 14.5 35.4 0.00 0.00 0.00 74 1010.8
20260507124003 22 359 14.5 35.4 0.00 0.00 0.00 74 1010.8
20260507123505 21 347 17.7 30.6 0.00 0.00 0.00 75 1010.9
20260507123006 21 39 16.1 35.4 0.00 0.00 0.00 75 1011.1
20260507122503 22 18 11.3 35.4 0.00 0.00 0.00 74 1011.2
20260507122004 22 306 12.9 35.4 0.00 0.00 0.00 74 1011.2
20260507121509 22 333 14.5 41.8 0.00 0.00 0.00 73 1010.8
20260507121004 22 300 16.1 41.8 0.00 0.00 0.00 73 1010.9
20260507120504 22 8 17.7 43.5 0.00 0.00 0.00 73 1011.0
20260507120025 22 352 17.7 43.5 0.00 0.00 0.00 73 1011.2
20260507115504 22 24 19.3 38.6 0.00 0.00 0.00 72 1011.2
20260507115003 22 297 22.5 38.6 0.00 0.00 0.00 73 1010.9
20260507114512 22 307 20.9 37.0 0.00 0.00 0.00 73 1010.9
20260507114004 22 305 19.3 37.0 0.00 0.00 0.00 72 1011.1
20260507113506 22 325 20.9 45.1 0.00 0.00 0.00 71 1011.0
20260507113017 22 309 22.5 45.1 0.00 0.00 0.00 71 1010.9
20260507112506 22 6 22.5 37.0 0.00 0.00 0.00 71 1010.9
20260507112004 22 323 14.5 32.2 0.00 0.00 0.00 72 1011.1
20260507111513 22 307 17.7 27.4 0.00 0.00 0.00 72 1011.0
20260507111004 22 296 11.3 40.2 0.00 0.00 0.00 72 1011.0
20260507110503 22 323 20.9 40.2 0.00 0.00 0.00 71 1011.0
20260507110010 22 304 12.9 27.4 0.00 0.00 0.00 70 1011.3
20260507105504 22 314 8.0 37.0 0.00 0.00 0.00 70 1011.4
20260507105003 22 353 12.9 37.0 0.00 0.00 0.00 70 1011.2
20260507104518 22 347 11.3 30.6 0.00 0.00 0.00 70 1011.1
20260507104006 22 347 16.1 30.6 0.00 0.00 0.00 71 1011.0
20260507103506 22 339 17.7 37.0 0.00 0.00 0.00 71 1011.0
20260507103011 22 321 14.5 37.0 0.00 0.00 0.00 71 1010.9
20260507102504 22 344 19.3 33.8 0.00 0.00 0.00 71 1010.9
20260507102006 22 349 14.5 33.8 0.00 0.00 0.00 72 1010.9
20260507101520 22 339 14.5 30.6 0.00 0.00 0.00 72 1010.9
20260507101007 22 352 17.7 32.2 0.00 0.00 0.00 73 1011.0
20260507100503 22 19 12.9 32.2 0.00 0.00 0.00 73 1010.8
20260507100028 22 27 17.7 30.6 0.00 0.00 0.00 74 1010.8
20260507095506 21 308 19.3 32.2 0.00 0.00 0.00 75 1010.7
20260507095004 21 335 12.9 38.6 0.00 0.00 0.00 76 1010.9
20260507094510 21 22 19.3 38.6 0.00 0.00 0.00 76 1010.9
20260507094003 21 13 14.5 37.0 0.00 0.00 0.00 76 1010.8
20260507093504 21 330 19.3 37.0 0.00 0.00 0.00 76 1011.0
20260507093014 21 14 12.9 37.0 0.00 0.00 0.00 77 1011.0
20260507092509 21 27 9.7 29.0 0.00 0.00 0.00 76 1011.0
20260507092008 21 315 9.7 22.5 0.00 0.00 0.00 76 1011.0
20260507091513 21 10 9.7 30.6 0.00 0.00 0.00 76 1011.2
20260507091004 21 322 12.9 32.2 0.00 0.00 0.00 76 1011.3
20260507090510 21 344 14.5 32.2 0.00 0.00 0.00 76 1011.1
20260507090015 21 4 12.9 30.6 0.00 0.00 0.00 77 1011.3
20260507085504 21 307 9.7 25.7 0.00 0.00 0.00 76 1011.1
20260507085005 21 345 14.5 25.7 0.00 0.00 0.00 76 1011.3
20260507084530 21 359 8.0 22.5 0.00 0.00 0.00 76 1011.4
20260507084004 21 352 11.3 22.5 0.00 0.00 0.00 75 1011.4
20260507083506 21 35 11.3 25.7 0.00 0.00 0.00 75 1011.6
20260507083021 21 342 14.5 30.6 0.00 0.00 0.00 75 1011.5
20260507082504 21 67 9.7 30.6 0.00 0.00 0.00 75 1011.8
20260507082003 22 21 11.3 30.6 0.00 0.00 0.00 74 1011.8
20260507081514 22 15 11.3 27.4 0.00 0.00 0.00 74 1011.9
20260507081010 22 15 9.7 27.4 0.00 0.00 0.00 74 1011.9
20260507080505 22 316 11.3 37.0 0.00 0.00 0.00 74 1011.9
20260507080016 22 352 11.3 37.0 0.00 0.00 0.00 74 1011.8